Weather History for Macomb, IL

Change the Weather History Date:

Wednesday, November 20, 2013

  Actual Average (KBRL) Record (KBRL)
Temperature  
Mean Temperature 38 °F 40 °F  
Max Temperature 43 °F 49 °F 76 °F (1913)
Min Temperature 34 °F 31 °F 7 °F (1914)
Degree Days  
Heating Degree Days 26 25  
Month to date heating degree days 402  
Since 1 July heating degree days 796  
Cooling Degree Days 0 0  
Month to date cooling degree days 0  
Year to date cooling degree days 1206  
Moisture  
Dew Point 35 °F    
Average Humidity 85    
Maximum Humidity 98    
Minimum Humidity 67    
Precipitation  
Precipitation 0.17 in 0.08 in 1.59 in (1992)
Month to date precipitation 1.68  
Year to date precipitation 35.57  
Sea Level Pressure  
Sea Level Pressure 30.13 in    
Wind  
Wind Speed 11 mph (SE)    
Max Wind Speed 17 mph    
Max Gust Speed 22 mph    
Visibility 9 miles    
Events Rain , Thunderstorm    
T = Trace of Precipitation, MM = Missing Value Source: NWS Daily Summary

Daily Weather History Graph

Daily Weather History Graph

Search for Another Location

Airport:

Trip Planner

Search our weather history database for the weather conditions in past years. The results will help you decide how hot, cold, wet, or windy it might be!

Date:

Astronomy

Nov. 20, 2013 Rise Set
Actual Time 6:55 AM CST 4:41 PM CST
Civil Twilight 6:25 AM CST 5:10 PM CST
Nautical Twilight 5:52 AM CST 5:44 PM CST
Astronomical Twilight 5:19 AM CST 6:16 PM CST
Moon 7:24 PM CST (11/20) 9:20 AM CST (11/20)
Length of Visible Light 10h 45m
Length of Day
9h 46m
Waning Gibbous, 91% of the Moon is Illuminated
Nov 20
Waning Gibbous
Nov 25
Last Quarter
Dec 2
New
Dec 9
First Quarter
Dec 17
Full

Hourly Weather History & Observations

Time (CST) Temp. Windchill Dew Point Humidity Pressure Visibility Wind Dir Wind Speed Gust Speed Precip Events Conditions
12:15 AM 34.5 °F 29.4 °F 30.2 °F 84% 30.23 in 10.0 mi SSE 5.8 mph - N/A   Mostly Cloudy
12:35 AM 36.0 °F 29.6 °F 30.6 °F 81% 30.23 in 10.0 mi SSE 8.1 mph - N/A   Overcast
12:55 AM 36.5 °F 29.2 °F 30.7 °F 80% 30.22 in 10.0 mi SE 10.4 mph - N/A   Overcast
1:15 AM 36.5 °F 28.7 °F 30.6 °F 79% 30.22 in 10.0 mi SE 11.5 mph - N/A   Overcast
1:35 AM 36.7 °F 29.9 °F 30.7 °F 79% 30.22 in 10.0 mi SE 9.2 mph - N/A   Overcast
1:55 AM 36.7 °F 30.5 °F 30.9 °F 80% 30.22 in 10.0 mi SSE 8.1 mph - N/A   Overcast
2:15 AM 36.9 °F 29.6 °F 30.9 °F 79% 30.23 in 10.0 mi SSE 10.4 mph - N/A   Overcast
2:35 AM 37.2 °F 30.6 °F 31.1 °F 79% 30.22 in 10.0 mi SSE 9.2 mph - N/A   Overcast
2:55 AM 37.6 °F 30.0 °F 31.1 °F 77% 30.22 in 10.0 mi SE 11.5 mph - N/A   Overcast
3:15 AM 37.8 °F 29.4 °F 31.1 °F 77% 30.20 in 10.0 mi SE 13.8 mph - N/A   Overcast
3:35 AM 37.6 °F 29.6 °F 30.9 °F 77% 30.20 in 10.0 mi SE 12.7 mph - N/A   Overcast
3:55 AM 37.4 °F 29.3 °F 30.9 °F 77% 30.19 in 10.0 mi SE 12.7 mph - N/A   Overcast
4:15 AM 37.2 °F 28.7 °F 30.9 °F 78% 30.19 in 10.0 mi SE 13.8 mph - N/A   Overcast
4:35 AM 36.9 °F 28.7 °F 30.7 °F 79% 30.18 in 10.0 mi SE 12.7 mph - N/A   Overcast
4:55 AM 36.5 °F 27.8 °F 30.9 °F 80% 30.18 in 10.0 mi SE 13.8 mph - N/A   Mostly Cloudy
5:15 AM 36.9 °F 28.2 °F 30.9 °F 79% 30.17 in 10.0 mi SE 13.8 mph - N/A   Scattered Clouds
5:35 AM 36.9 °F 27.5 °F 30.7 °F 79% 30.16 in 10.0 mi SE 16.1 mph - N/A   Scattered Clouds
5:55 AM 36.9 °F 28.2 °F 30.9 °F 79% 30.16 in 10.0 mi SE 13.8 mph - N/A   Mostly Cloudy
6:15 AM 36.9 °F 28.2 °F 30.9 °F 79% 30.17 in 10.0 mi SSE 13.8 mph - N/A   Mostly Cloudy
6:35 AM 36.7 °F 26.9 °F 31.1 °F 80% 30.16 in 10.0 mi SE 17.3 mph 21.9 mph N/A   Scattered Clouds
6:55 AM 36.9 °F 27.8 °F 30.9 °F 79% 30.17 in 10.0 mi SE 15.0 mph - N/A   Clear
7:15 AM 36.9 °F 28.7 °F 31.1 °F 80% 30.17 in 10.0 mi SE 12.7 mph - N/A   Scattered Clouds
7:35 AM 36.5 °F 27.8 °F 30.9 °F 80% 30.17 in 10.0 mi SSE 13.8 mph - N/A   Clear
7:55 AM 36.9 °F 28.7 °F 31.1 °F 80% 30.18 in 10.0 mi SSE 12.7 mph - N/A   Mostly Cloudy
8:15 AM 37.2 °F 29.1 °F 31.1 °F 79% 30.17 in 10.0 mi SSE 12.7 mph 19.6 mph N/A   Overcast
8:35 AM 37.6 °F 28.4 °F 31.5 °F 79% 30.17 in 10.0 mi SE 16.1 mph - N/A   Overcast
8:55 AM 37.9 °F 29.6 °F 31.5 °F 77% 30.17 in 10.0 mi SE 13.8 mph - N/A   Overcast
9:15 AM 38.3 °F 30.5 °F 31.6 °F 77% 30.18 in 10.0 mi SSE 12.7 mph - N/A   Overcast
9:35 AM 38.8 °F 31.2 °F 31.6 °F 75% 30.19 in 10.0 mi SSE 12.7 mph - N/A   Overcast
9:55 AM 39.2 °F 33.6 °F 31.8 °F 75% 30.19 in 10.0 mi SSE 8.1 mph - N/A   Overcast
10:15 AM 39.7 °F 34.3 °F 32.0 °F 74% 30.20 in 10.0 mi South 8.1 mph - N/A   Overcast
10:35 AM 40.8 °F 34.5 °F 32.0 °F 71% 30.19 in 10.0 mi SSE 10.4 mph - N/A   Mostly Cloudy
10:55 AM 42.1 °F 35.2 °F 32.0 °F 67% 30.18 in 10.0 mi South 12.7 mph - N/A   Mostly Cloudy
11:15 AM 41.9 °F 35.0 °F 32.0 °F 68% 30.17 in 10.0 mi SSE 12.7 mph - N/A   Scattered Clouds
11:35 AM 42.1 °F 35.2 °F 32.0 °F 67% 30.15 in 10.0 mi SSE 12.7 mph - N/A   Mostly Cloudy
11:55 AM 41.9 °F 34.6 °F 32.0 °F 68% 30.14 in 10.0 mi SSE 13.8 mph - N/A   Mostly Cloudy
12:15 PM 41.9 °F 35.4 °F 32.0 °F 68% 30.13 in 10.0 mi SSE 11.5 mph - N/A Rain Light Rain
12:35 PM 41.4 °F 34.3 °F 33.6 °F 74% 30.13 in 10.0 mi SSE 12.7 mph - N/A Rain Light Rain
12:55 PM 40.3 °F 33.0 °F 34.5 °F 80% 30.11 in 7.0 mi SSE 12.7 mph - 0.02 in Rain Rain
1:15 PM 39.2 °F 32.5 °F 34.9 °F 84% 30.10 in 5.0 mi SSE 10.4 mph 16.1 mph 0.04 in Rain Rain
1:35 PM 38.5 °F 29.2 °F 37.0 °F 95% 30.08 in 5.0 mi SE 17.3 mph - 0.07 in Rain Light Rain
1:55 PM 38.5 °F 30.3 °F 37.4 °F 96% 30.07 in 5.0 mi SE 13.8 mph - 0.10 in Rain Rain
2:15 PM 38.7 °F 29.8 °F 37.8 °F 97% 30.06 in 7.0 mi SE 16.1 mph - N/A Rain Light Rain
2:35 PM 39.2 °F 30.5 °F 38.3 °F 97% 30.06 in 7.0 mi SE 16.1 mph 20.7 mph N/A   Light Drizzle
2:55 PM 39.6 °F 31.3 °F 39.0 °F 98% 30.03 in 7.0 mi SE 15.0 mph - 0.01 in Rain Light Rain
3:15 PM 39.7 °F 31.5 °F 39.2 °F 98% 30.03 in 7.0 mi SE 15.0 mph - N/A   Mostly Cloudy
3:35 PM 39.7 °F 32.7 °F 39.2 °F 98% 30.04 in 7.0 mi SSE 11.5 mph - N/A   Overcast
3:55 PM 39.7 °F 32.3 °F 39.2 °F 98% 30.03 in 5.0 mi SSE 12.7 mph 17.3 mph N/A   Overcast
4:15 PM 39.7 °F 32.7 °F 39.2 °F 98% 30.03 in 7.0 mi SSE 11.5 mph - N/A   Overcast
4:35 PM 39.7 °F 33.7 °F 39.2 °F 98% 30.05 in 7.0 mi SSE 9.2 mph - N/A Rain Light Rain
4:55 PM 40.1 °F 33.6 °F 39.2 °F 97% 30.05 in 7.0 mi SE 10.4 mph - N/A Rain Light Rain
5:15 PM 40.1 °F 33.6 °F 39.4 °F 97% 30.06 in 7.0 mi SE 10.4 mph - N/A Rain , Thunderstorm Light Thunderstorms and Rain
5:35 PM 40.1 °F 36.1 °F 39.4 °F 97% 30.06 in 7.0 mi SE 5.8 mph - N/A Rain , Thunderstorm Light Thunderstorms and Rain
5:55 PM 40.3 °F 33.0 °F 39.6 °F 97% 30.07 in 5.0 mi SE 12.7 mph - 0.01 in Rain , Thunderstorm Light Thunderstorms and Rain
6:15 PM 40.1 °F 33.6 °F 39.4 °F 97% 30.07 in 5.0 mi SE 10.4 mph - 0.02 in Rain , Thunderstorm Rain
6:35 PM 40.1 °F 34.1 °F 39.4 °F 97% 30.08 in 5.0 mi SE 9.2 mph - 0.03 in Rain Light Rain
6:55 PM 40.3 °F 36.3 °F 39.6 °F 97% 30.09 in 5.0 mi SE 5.8 mph - 0.03 in   Overcast
7:15 PM 40.3 °F 35.5 °F 39.6 °F 97% 30.09 in 5.0 mi ESE 6.9 mph - N/A   Overcast
7:35 PM 40.5 °F 35.1 °F 39.6 °F 97% 30.08 in 5.0 mi ESE 8.1 mph - N/A   Overcast
7:55 PM 40.6 °F 35.4 °F 39.6 °F 96% 30.08 in 5.0 mi SE 8.1 mph - N/A   Overcast
8:15 PM 41.0 °F 35.8 °F 39.7 °F 95% 30.08 in 7.0 mi SE 8.1 mph - N/A   Overcast
8:35 PM 41.4 °F 36.2 °F 39.7 °F 94% 30.08 in 7.0 mi SE 8.1 mph - N/A   Overcast
8:55 PM 41.5 °F 35.9 °F 39.7 °F 93% 30.08 in 7.0 mi SE 9.2 mph - N/A   Overcast
9:15 PM 41.9 °F 36.3 °F 39.9 °F 93% 30.08 in 7.0 mi SSE 9.2 mph - N/A   Overcast
9:35 PM 42.3 °F 37.3 °F 39.9 °F 91% 30.08 in 10.0 mi SSE 8.1 mph - N/A   Overcast
9:55 PM 42.8 °F 38.6 °F 39.7 °F 89% 30.08 in 10.0 mi SSE 6.9 mph - N/A   Overcast
10:15 PM 42.8 °F 38.0 °F 39.7 °F 89% 30.08 in 10.0 mi SE 8.1 mph - N/A   Overcast
10:35 PM 43.0 °F 38.2 °F 39.7 °F 88% 30.08 in 10.0 mi SSE 8.1 mph - N/A   Overcast
10:55 PM 43.3 °F 38.1 °F 39.7 °F 87% 30.08 in 10.0 mi SSE 9.2 mph - N/A   Overcast
11:15 PM 43.9 °F 38.3 °F 39.7 °F 85% 30.09 in 10.0 mi SSE 10.4 mph - N/A   Overcast
11:35 PM 43.9 °F 38.8 °F 39.7 °F 85% 30.08 in 10.0 mi SSE 9.2 mph - N/A   Overcast
11:55 PM 43.9 °F 38.8 °F 40.1 °F 87% 30.08 in 10.0 mi SSE 9.2 mph - N/A   Overcast